星链-6111 (STARLINK-6111 )

导读

STARLINK-6111是美国太空探索技术公司SpaceX星链星座的成员卫星,于2023年6月23日发射升空,旨在为全球提供高速低延迟卫星互联网服务,尤其覆盖偏远地区与网络基础设施薄弱区域。该卫星延续星链卫星设计,配备自主导航与脱轨技术,降低空间碎片风险,支撑星链网络全球服务能力拓展。

Basic Information
目录编号:
57102
目录名称:
STARLINK-6111
国际标识:
2023-090B
轨道中心:
EARTH
卫星名称:
星链-6111
卫星全名:
星链-6111 (STARLINK-6111 )
卫星状态:
在轨 (已飞行1088 天)
发射日期:
2023-06-23 UTC
国别 :
美国 (US)
星等 :
--
Orbit Information
数据来源 国际轨道数据 AOE轨道数据
星历时间 2026-06-14T10:09:38+0800
22小时前
查看轨道信息
2026-06-09T00:00:00+0800
6天前
查看轨道信息
半长轴 6861.196km 6863.645km
偏心率 0.0001456 0.0000193
轨道倾角 43.004° 43.001°
近地点辐角 237.841° 163.835°
升交点赤经 97.305° 127.925°
平近点角 122.230° 220.735°
近地点 482.06km 485.375km
远地点 484.058km 485.641km
周期 94.267分钟 94.317分钟
每日圈数 15.27577 15.267594
Detailed Information
固有亮度:
5
最大亮度:
2.4
卫星平台:
Starlink v1.5
覆盖范围:
全球
运营商:
太空探索技术公司
运营商所在国:
美国
制造商(研发单位):
太空探索技术公司
制造商所在国:
美国
使用方式:
暂无
Satellite Introduction
星链(Starlink)计划是由太空探索技术公司(SpaceX)提出的一个巨型低轨卫星互联网星座项目,计划在2019年至2024年间在太空搭建由约1.2万颗卫星组成的“星链”网络,其中1584颗将部署在地球上空550千米处的近地轨道,并从2020年开始工作。该卫星仍在工作。
2D Orbit Map
3D Orbit Map
Orbit Altitude Analysis Chart
Orbit Inclination Analysis Chart
Orbit Comprehensive Analysis Chart
View Comprehensive Chart